TimePDT,TemperatureF,Dew PointF,Humidity,Sea Level PressureIn,VisibilityMPH,Wind Direction,Wind SpeedMPH,Gust SpeedMPH,PrecipitationIn,Events,Conditions,WindDirDegrees,DateUTC
12:15 AM,57.2,51.8,82,30.14,10.0,Calm,Calm,-,N/A,,Unknown,0,2012-09-04 07:15:00
12:35 AM,57.2,51.8,82,30.14,10.0,Calm,Calm,-,N/A,,Unknown,0,2012-09-04 07:35:00
12:55 AM,57.2,51.8,82,30.14,10.0,Calm,Calm,-,N/A,,Unknown,0,2012-09-04 07:55:00
1:15 AM,55.4,50.0,82,30.14,10.0,Calm,Calm,-,N/A,,Unknown,0,2012-09-04 08:15:00
1:35 AM,55.4,51.8,88,30.14,10.0,North,3.5,-,N/A,,Unknown,10,2012-09-04 08:35:00
1:55 AM,57.2,51.8,82,30.14,10.0,NNW,4.6,-,N/A,,Unknown,340,2012-09-04 08:55:00
2:15 AM,57.2,51.8,82,30.14,10.0,North,4.6,-,N/A,,Unknown,350,2012-09-04 09:15:00
2:55 AM,55.4,51.8,88,30.15,10.0,North,-9999.0,-,N/A,,Unknown,0,2012-09-04 09:55:00
3:15 AM,55.4,51.8,88,30.16,10.0,North,3.5,-,N/A,,Unknown,360,2012-09-04 10:15:00
3:35 AM,55.4,51.8,88,30.16,10.0,NNW,4.6,-,N/A,,Unknown,340,2012-09-04 10:35:00
3:55 AM,53.6,50.0,88,30.16,10.0,Calm,Calm,-,N/A,,Unknown,0,2012-09-04 10:55:00
4:15 AM,51.8,48.2,88,30.16,10.0,Calm,Calm,-,N/A,,Unknown,0,2012-09-04 11:15:00
4:35 AM,51.8,48.2,88,30.16,10.0,Calm,Calm,-,N/A,,Unknown,0,2012-09-04 11:35:00
4:55 AM,51.8,48.2,88,30.16,10.0,Calm,Calm,-,N/A,,Unknown,0,2012-09-04 11:55:00
5:15 AM,51.8,48.2,88,30.17,10.0,Calm,Calm,-,N/A,,Unknown,0,2012-09-04 12:15:00
5:35 AM,51.8,48.2,88,30.17,10.0,Calm,Calm,-,N/A,,Unknown,0,2012-09-04 12:35:00
5:55 AM,51.8,46.4,82,30.17,10.0,Calm,Calm,-,N/A,,Unknown,0,2012-09-04 12:55:00
6:15 AM,51.8,46.4,82,30.17,10.0,Calm,Calm,-,N/A,,Unknown,0,2012-09-04 13:15:00
6:35 AM,51.8,46.4,82,30.18,10.0,Calm,Calm,-,N/A,,Unknown,0,2012-09-04 13:35:00
6:55 AM,51.8,46.4,82,30.18,10.0,Calm,Calm,-,N/A,,Unknown,0,2012-09-04 13:55:00
7:15 AM,51.8,48.2,88,30.18,10.0,Calm,Calm,-,N/A,,Unknown,0,2012-09-04 14:15:00
7:35 AM,53.6,48.2,82,30.19,10.0,Calm,Calm,-,N/A,,Unknown,0,2012-09-04 14:35:00
7:55 AM,55.4,48.2,77,30.19,10.0,Calm,Calm,-,N/A,,Unknown,0,2012-09-04 14:55:00
8:15 AM,57.2,50.0,77,30.19,10.0,Calm,Calm,-,N/A,,Unknown,0,2012-09-04 15:15:00
8:35 AM,57.2,51.8,82,30.18,10.0,NW,4.6,-,N/A,,Unknown,310,2012-09-04 15:35:00
8:55 AM,59.0,50.0,72,30.18,10.0,NW,3.5,-,N/A,,Unknown,320,2012-09-04 15:55:00
9:15 AM,60.8,50.0,68,30.18,10.0,NNW,9.2,-,N/A,,Unknown,330,2012-09-04 16:15:00
9:35 AM,62.6,50.0,63,30.17,10.0,NNW,9.2,-,N/A,,Unknown,340,2012-09-04 16:35:00
9:55 AM,62.6,50.0,63,30.17,10.0,North,12.7,-,N/A,,Unknown,350,2012-09-04 16:55:00
10:15 AM,64.4,50.0,59,30.17,10.0,North,12.7,-,N/A,,Unknown,360,2012-09-04 17:15:00
10:35 AM,66.2,50.0,56,30.17,10.0,NNW,10.4,18.4,N/A,,Unknown,340,2012-09-04 17:35:00
10:55 AM,68.0,50.0,52,30.17,10.0,NNW,13.8,-,N/A,,Unknown,340,2012-09-04 17:55:00
11:15 AM,69.8,50.0,49,30.17,10.0,North,10.4,17.3,N/A,,Unknown,350,2012-09-04 18:15:00
11:35 AM,71.6,48.2,43,30.16,10.0,NNW,11.5,18.4,N/A,,Unknown,330,2012-09-04 18:35:00
11:55 AM,73.4,48.2,41,30.15,10.0,North,11.5,17.3,N/A,,Unknown,350,2012-09-04 18:55:00
12:15 PM,73.4,48.2,41,30.14,10.0,North,9.2,-,N/A,,Unknown,350,2012-09-04 19:15:00
12:35 PM,73.4,50.0,44,30.14,10.0,NW,9.2,-,N/A,,Unknown,320,2012-09-04 19:35:00
12:55 PM,75.2,50.0,41,30.13,10.0,NNW,10.4,16.1,N/A,,Unknown,340,2012-09-04 19:55:00
1:15 PM,75.2,50.0,41,30.13,10.0,NNW,9.2,16.1,N/A,,Unknown,330,2012-09-04 20:15:00
1:35 PM,78.8,50.0,36,30.12,10.0,NNW,10.4,18.4,N/A,,Unknown,340,2012-09-04 20:35:00
1:55 PM,78.8,50.0,36,30.12,10.0,North,11.5,18.4,N/A,,Unknown,10,2012-09-04 20:55:00
2:15 PM,78.8,50.0,36,30.12,10.0,NNW,9.2,16.1,N/A,,Unknown,340,2012-09-04 21:15:00
2:35 PM,80.6,50.0,34,30.11,10.0,North,13.8,17.3,N/A,,Unknown,350,2012-09-04 21:35:00
2:55 PM,80.6,50.0,34,30.11,10.0,North,9.2,-,N/A,,Unknown,360,2012-09-04 21:55:00
3:15 PM,80.6,50.0,34,30.10,10.0,NNW,11.5,-,N/A,,Unknown,340,2012-09-04 22:15:00
3:35 PM,80.6,48.2,32,30.09,10.0,NNW,11.5,16.1,N/A,,Unknown,330,2012-09-04 22:35:00
3:55 PM,82.4,48.2,30,30.08,10.0,North,10.4,19.6,N/A,,Unknown,10,2012-09-04 22:55:00
4:15 PM,80.6,48.2,32,30.08,10.0,North,12.7,18.4,N/A,,Unknown,360,2012-09-04 23:15:00
4:35 PM,80.6,50.0,34,30.08,10.0,NNW,12.7,-,N/A,,Unknown,340,2012-09-04 23:35:00
4:55 PM,80.6,50.0,34,30.08,10.0,North,11.5,17.3,N/A,,Unknown,350,2012-09-04 23:55:00
5:35 PM,80.6,48.2,32,30.07,10.0,North,9.2,19.6,N/A,,Unknown,10,2012-09-05 00:35:00
5:55 PM,80.6,48.2,32,30.07,10.0,North,10.4,-,N/A,,Unknown,360,2012-09-05 00:55:00
6:15 PM,80.6,48.2,32,30.07,10.0,North,11.5,-,N/A,,Unknown,350,2012-09-05 01:15:00
6:35 PM,78.8,48.2,34,30.07,10.0,NNW,11.5,-,N/A,,Unknown,330,2012-09-05 01:35:00
6:55 PM,77.0,48.2,36,30.06,10.0,NNW,8.1,-,N/A,,Unknown,330,2012-09-05 01:55:00
7:15 PM,77.0,48.2,36,30.06,10.0,NNW,9.2,-,N/A,,Unknown,340,2012-09-05 02:15:00
7:35 PM,75.2,48.2,38,30.06,10.0,NNW,6.9,-,N/A,,Unknown,330,2012-09-05 02:35:00
7:55 PM,73.4,46.4,38,30.06,10.0,NNW,5.8,-,N/A,,Unknown,340,2012-09-05 02:55:00
8:15 PM,71.6,46.4,41,30.07,10.0,NW,3.5,-,N/A,,Unknown,320,2012-09-05 03:15:00
8:35 PM,69.8,46.4,43,30.07,9.0,NNW,5.8,-,N/A,,Unknown,330,2012-09-05 03:35:00
8:55 PM,69.8,48.2,46,30.08,10.0,North,3.5,-,N/A,,Unknown,350,2012-09-05 03:55:00
9:35 PM,66.2,53.6,64,30.08,10.0,NNE,3.5,-,N/A,,Unknown,20,2012-09-05 04:35:00
9:55 PM,64.4,53.6,68,30.08,10.0,North,3.5,-,N/A,,Unknown,360,2012-09-05 04:55:00
10:15 PM,64.4,53.6,68,30.08,10.0,Calm,Calm,-,N/A,,Unknown,0,2012-09-05 05:15:00
10:35 PM,64.4,53.6,68,30.08,10.0,North,3.5,-,N/A,,Unknown,10,2012-09-05 05:35:00
10:55 PM,62.6,53.6,72,30.08,10.0,North,3.5,-,N/A,,Unknown,350,2012-09-05 05:55:00
11:15 PM,62.6,53.6,72,30.08,10.0,NNW,4.6,-,N/A,,Unknown,340,2012-09-05 06:15:00
11:35 PM,62.6,53.6,72,30.08,10.0,Calm,Calm,-,N/A,,Unknown,0,2012-09-05 06:35:00
11:55 PM,60.8,51.8,72,30.08,10.0,Calm,Calm,-,N/A,,Unknown,0,2012-09-05 06:55:00